Theta_e
333 333 326 321 306 313 309 310 321 314 313 319 321 319 316 318 315 307 328 342 348 351 355 357 361 361 362 361 360 360 359 357 356 355 354 354 355 355 358 357 357 355 353 353 354 354 353 353 353
319 317 317 311 307 305 306 317 316 314 316 320 320 319 317 315 323 324 327 339 344 347 352 355 361 362 361 360 359 359 357 356 355 355 354 355 356 356 357 358 358 357 354 353 354 355 355 355 355
325 318 303 299 307 306 306 314 317 318 320 321 320 323 321 317 324 325 332 336 341 345 352 356 362 362 361 359 358 358 357 356 355 355 354 355 355 357 358 358 358 357 355 356 355 355 354 353 354
312 310 305 297 301 310 313 317 320 318 321 322 322 316 322 327 326 329 333 338 343 347 353 360 362 361 360 358 358 357 356 356 356 355 354 354 355 356 357 357 357 357 354 352 352 353 355 354 354
311 303 296 297 303 309 317 320 320 318 321 321 321 317 319 326 330 330 334 340 339 346 353 356 361 361 359 357 357 357 357 358 357 355 354 354 354 355 355 355 355 355 353 352 353 355 355 355 355
301 302 294 293 303 314 318 322 322 320 321 320 318 319 319 328 328 330 337 337 341 345 349 353 360 361 360 359 358 358 358 358 358 357 357 356 355 355 355 355 355 355 355 355 355 355 355 355 355
299 297 296 298 305 313 317 322 320 320 320 320 320 316 321 326 328 333 337 338 339 343 344 350 353 356 359 359 359 358 358 358 357 357 356 356 356 356 356 355 355 355 355 354 354 354 354 354 354
303 300 298 299 307 311 319 320 323 321 320 328 328 317 317 325 330 335 336 337 340 341 343 343 348 351 351 352 358 358 358 358 357 357 356 356 356 356 356 354 354 355 355 355 355 355 355 354 354
305 297 295 300 311 314 317 318 323 328 323 325 325 325 326 329 328 326 332 336 338 339 340 342 345 347 348 350 354 358 357 356 357 356 357 354 348 345 349 352 353 354 355 356 356 355 355 354 353
302 295 298 313 317 317 321 321 326 325 322 321 324 328 330 329 325 324 325 330 333 336 338 341 342 342 342 348 348 350 350 350 350 348 345 345 342 340 346 349 354 357 356 356 355 355 355 355 345
303 299 307 319 323 323 320 320 323 321 320 322 321 325 328 327 325 325 326 327 327 331 340 341 341 340 339 345 345 345 345 345 345 344 343 344 344 339 341 338 347 348 353 347 347 347 349 346 343
306 306 315 322 324 323 321 322 321 322 323 327 326 328 327 327 326 325 328 326 328 336 339 342 343 342 345 346 345 340 343 344 343 346 346 340 340 343 343 342 342 340 341 341 340 344 344 343 343
301 304 315 321 323 323 322 318 319 321 325 330 329 327 325 326 334 338 342 343 340 339 342 343 347 348 347 345 345 349 340 341 343 344 344 344 342 346 348 347 348 350 352 347 343 337 336 342 343
305 305 313 320 320 322 320 319 324 327 327 328 330 327 332 335 337 339 340 340 342 343 344 346 348 348 349 346 347 348 348 344 350 351 351 351 350 348 350 351 351 350 350 354 353 351 349 346 343
306 301 303 315 317 316 319 317 319 328 328 327 330 332 333 334 337 336 339 339 342 343 344 344 345 349 349 350 351 350 350 349 350 347 345 346 344 343 343 344 345 343 346 348 346 345 348 346 348
301 300 295 302 316 318 316 310 321 328 329 327 330 332 332 333 335 337 340 340 343 343 343 345 349 349 348 349 350 349 349 345 342 341 340 341 339 340 340 340 339 338 341 343 340 339 338 342 343
298 293 295 300 305 315 308 315 324 328 328 326 327 329 331 332 334 337 340 342 343 343 344 344 348 348 348 349 347 347 343 341 340 339 338 338 337 339 335 335 337 337 336 337 336 335 333 334 337
294 294 296 297 302 303 301 309 321 325 326 326 326 328 330 330 331 336 339 340 340 340 341 343 345 348 347 349 348 343 341 339 337 333 334 334 334 336 332 332 333 333 333 334 334 332 333 332 333
300 298 298 301 305 302 301 314 317 320 321 324 325 326 328 329 331 333 334 334 333 334 335 336 336 340 338 337 335 335 336 335 333 330 330 331 331 330 330 328 329 330 331 331 332 330 329 330 333
301 298 297 303 307 303 301 301 312 316 314 322 323 326 327 327 328 329 328 329 329 330 331 330 329 331 334 333 334 332 330 332 332 329 327 326 324 328 326 326 327 326 328 326 328 327 326 326 330
299 297 299 299 306 305 303 299 300 314 315 314 321 326 327 326 325 325 325 325 327 326 327 327 327 327 328 333 333 332 325 321 322 321 323 322 322 325 323 323 324 322 324 324 324 325 323 322 324
296 303 304 302 301 295 303 290 298 307 311 312 311 324 325 325 325 323 322 321 323 323 325 325 325 322 325 325 323 318 315 314 318 318 322 321 321 322 323 322 322 318 319 318 319 322 324 321 318
299 304 304 302 298 296 298 292 298 303 304 308 310 321 324 325 324 322 320 319 320 322 321 322 321 321 323 323 320 319 318 315 317 317 320 319 319 320 324 321 322 320 318 318 318 319 320 321 319
308 304 303 300 295 289 294 293 296 297 305 310 313 322 325 323 323 322 320 319 320 321 320 321 320 320 321 322 321 319 317 317 316 314 314 317 317 318 321 323 320 320 319 318 318 316 317 316 314
303 295 288 288 288 288 297 294 298 307 311 312 315 319 323 323 321 320 317 316 317 318 319 320 319 319 320 320 320 319 317 316 316 313 314 314 314 315 318 320 319 318 318 318 315 316 314 316 314
298 296 289 285 287 290 299 294 301 309 310 311 314 317 322 320 320 319 317 316 316 318 319 319 320 319 319 320 319 319 319 316 316 317 317 314 315 318 318 319 319 319 319 319 315 314 314 314 315
298 295 299 294 294 289 293 301 308 311 311 312 312 312 318 319 318 318 317 317 316 317 318 320 320 319 319 319 319 318 319 318 317 317 319 319 317 319 319 320 319 320 320 320 317 314 313 314 311
300 303 293 293 286 285 292 294 299 305 307 310 310 310 318 318 317 318 318 317 316 318 319 319 321 320 321 320 319 320 318 319 318 318 317 318 318 319 320 320 319 318 317 318 317 314 315 311 310
300 296 295 295 294 288 287 293 305 306 310 309 311 313 315 316 316 317 318 318 318 318 318 321 320 320 320 320 320 320 318 319 319 318 318 319 319 320 320 320 319 317 317 317 314 311 314 313 309
304 300 298 291 290 293 292 292 308 307 309 312 312 316 314 314 314 316 317 319 318 317 317 319 320 320 320 321 319 318 318 318 318 318 319 317 316 316 316 316 315 315 314 311 312 314 315 311 308
Wind_Speed
3 6 3 3 6 8 4 8 9 15 18 21 21 18 19 13 8 13 10 17 18 15 11 13 15 15 15 14 13 12 11 11 10 9 9 8 9 10 9 9 9 10 10 10 10 9 8 7 5
2 4 2 3 6 6 6 8 11 16 19 20 20 22 28 25 19 20 11 15 15 15 10 10 16 15 14 13 13 12 11 10 9 8 8 7 8 8 8 8 8 8 9 9 8 7 5 4 4
2 4 2 5 1 4 7 16 18 18 19 16 9 8 7 8 12 7 17 18 16 12 10 12 15 15 14 13 12 11 10 9 8 8 7 7 7 6 6 6 6 6 6 6 5 4 4 3 5
2 3 5 0 7 6 4 11 27 21 21 17 14 15 15 18 9 14 20 19 16 11 9 13 14 13 13 12 11 10 9 8 8 7 7 6 6 5 4 3 3 3 3 2 1 1 3 5 6
3 2 1 5 10 4 4 31 15 12 14 18 19 15 14 16 19 20 21 18 17 11 8 9 13 12 12 12 11 10 8 7 6 5 5 5 4 3 3 2 1 1 1 2 3 4 4 5 6
3 3 2 4 12 2 12 17 26 20 17 15 19 16 8 10 11 15 20 18 17 14 9 8 13 12 11 11 10 8 7 6 5 4 3 3 3 3 3 3 3 4 5 5 5 6 7 7 8
5 0 7 7 4 4 10 13 20 19 18 12 5 14 7 6 8 17 19 18 16 13 9 7 7 10 11 10 9 8 7 6 5 4 4 5 6 6 6 7 8 8 8 8 8 8 9 9 9
3 2 10 7 5 4 6 8 21 24 18 8 9 7 12 10 9 20 19 18 17 15 12 10 9 8 7 6 11 9 8 7 6 6 7 7 8 7 8 10 11 11 10 11 10 11 11 11 11
3 3 6 9 8 9 4 16 4 8 16 8 10 12 12 14 10 11 17 15 14 13 14 12 11 10 9 8 9 11 13 12 10 9 10 8 5 6 10 12 14 14 13 13 12 13 13 13 14
5 2 7 6 7 14 15 16 8 7 11 12 17 16 15 12 9 12 10 16 15 15 15 13 12 10 10 9 8 8 7 5 6 6 6 5 5 7 8 11 16 13 15 14 13 14 14 12 5
8 7 5 18 27 24 24 25 14 23 6 18 19 18 14 8 8 11 13 13 11 11 10 11 8 13 8 6 4 3 4 4 5 6 7 5 4 3 1 3 3 4 8 5 7 8 7 7 5
3 7 16 21 26 18 17 13 13 22 11 16 13 10 9 7 9 10 5 6 10 14 11 9 8 7 8 5 5 5 4 4 3 6 8 4 1 3 3 2 2 5 4 6 6 5 6 8 9
4 2 17 18 26 26 22 20 22 14 23 10 13 12 10 7 10 14 13 16 11 13 11 6 8 7 5 4 4 4 3 3 4 1 2 1 2 5 5 5 5 6 6 4 5 4 3 4 6
2 4 19 14 21 19 21 15 16 20 24 7 16 9 10 12 13 11 13 9 11 9 8 8 7 7 6 3 3 3 4 7 8 8 8 9 6 7 6 7 7 8 8 7 7 8 6 4 3
3 5 3 11 9 7 13 11 11 21 19 10 10 11 12 10 12 9 7 8 9 7 7 7 5 7 5 3 1 3 7 7 8 7 10 10 11 9 7 6 7 8 8 10 9 8 7 10 8
5 6 3 8 12 10 8 10 9 13 15 12 11 10 10 9 9 8 8 8 8 8 7 7 7 7 6 5 7 6 8 8 8 7 7 10 10 8 7 6 4 6 6 6 7 7 7 4 5
2 5 6 11 10 12 7 18 15 15 16 14 12 11 11 9 8 8 8 7 8 8 7 7 7 8 7 9 5 9 8 8 6 6 5 7 7 7 5 5 5 6 4 4 4 5 4 6 5
7 6 8 9 9 9 8 11 17 19 19 17 15 15 14 10 7 8 9 8 8 7 7 6 5 6 5 5 6 6 7 6 6 6 6 8 7 8 6 5 7 7 6 5 7 6 5 3 4
7 7 9 2 6 8 8 18 17 15 14 17 16 16 16 14 10 10 9 9 8 7 6 6 7 5 5 4 4 4 4 4 4 5 7 8 7 8 7 5 6 7 6 6 8 5 7 6 7
10 8 7 3 7 7 5 3 11 14 10 19 18 19 18 16 12 12 9 8 7 6 6 7 7 7 4 4 3 4 4 4 5 4 6 7 7 6 7 6 6 6 4 7 7 7 5 3 6
6 3 7 3 4 4 4 4 7 11 12 10 15 17 21 21 16 11 9 9 8 7 6 5 5 7 6 6 3 4 5 4 4 3 4 5 7 7 7 7 6 6 5 5 5 6 7 5 4
5 7 9 10 3 2 6 5 8 9 13 10 9 18 19 18 15 11 10 9 9 7 7 6 5 6 7 5 6 7 5 5 1 3 4 5 6 6 6 6 6 6 5 6 5 5 4 4 5
9 7 4 9 1 5 10 4 10 5 7 10 10 17 20 20 19 16 14 11 10 9 7 6 6 7 6 8 7 6 6 4 3 3 8 6 3 6 6 6 5 5 4 5 6 7 7 3 2
4 7 8 6 4 5 9 4 12 6 10 8 7 20 21 21 18 16 14 14 12 11 8 6 6 4 6 7 7 8 8 6 5 4 5 3 2 4 4 4 4 4 4 5 4 6 7 5 5
8 8 5 5 4 9 9 4 17 1 9 5 12 17 21 21 19 16 17 15 12 13 10 7 6 5 5 6 6 6 7 7 6 4 4 5 2 2 3 2 3 2 2 3 5 5 6 5 5
4 9 7 5 3 5 8 5 2 9 10 9 7 9 18 18 18 18 17 15 15 15 13 9 8 6 6 6 5 4 4 3 4 4 3 3 3 1 2 3 3 3 3 1 3 2 4 5 5
6 3 10 1 4 4 3 3 7 9 9 9 9 11 10 14 15 18 16 14 15 14 13 13 9 7 7 6 4 5 6 6 4 4 4 3 2 1 4 6 6 6 6 5 3 2 4 3 3
3 1 6 5 1 4 6 4 4 5 7 8 7 6 12 11 13 16 15 15 12 14 11 10 10 9 8 8 6 5 5 5 4 4 2 2 4 5 6 7 6 7 5 5 6 5 4 4 5
4 2 1 5 5 4 1 6 6 6 8 10 9 9 10 11 14 16 16 15 17 16 14 12 12 10 9 8 7 7 6 5 6 5 6 5 5 6 7 6 6 6 6 7 6 7 4 5 6
9 10 8 6 8 3 5 8 3 8 9 9 8 9 10 11 10 13 14 16 16 15 13 13 10 9 9 9 8 7 7 6 7 7 7 6 6 6 6 7 6 6 6 6 6 7 6 6 6
Wind_Direction
224 207 182 350 61 36 287 244 257 113 74 79 69 75 79 50 97 118 133 115 120 118 118 112 113 119 120 121 119 113 108 105 100 97 93 90 89 88 86 91 98 100 99 99 99 96 91 81 59
334 300 175 286 110 148 258 274 259 120 116 100 87 88 69 76 81 117 106 123 126 121 120 123 123 121 125 124 121 116 112 109 104 99 96 95 92 92 88 86 90 93 97 100 102 98 89 68 35
208 209 95 159 219 153 195 210 226 117 105 95 69 28 70 96 96 102 129 130 117 111 119 129 128 129 128 125 120 118 118 115 113 115 115 108 101 92 87 89 90 93 96 99 96 84 71 38 0
266 41 314 133 215 221 5 110 74 79 86 99 108 65 75 100 89 132 131 124 111 115 121 127 127 125 125 124 123 124 126 130 132 131 126 121 120 114 103 90 86 92 105 108 90 22 350 344 337
166 271 210 278 260 303 97 93 98 78 78 85 99 108 95 98 126 129 128 123 117 120 127 124 128 130 131 134 136 138 137 138 138 135 130 124 127 139 151 160 171 205 233 246 249 265 282 289 298
297 137 0 252 238 78 95 89 84 79 54 76 88 100 98 122 131 132 126 123 124 132 131 136 136 139 141 140 142 144 145 148 149 150 154 162 183 208 219 223 234 249 257 265 274 279 279 280 281
193 144 243 272 172 27 110 93 103 97 74 38 132 118 144 135 169 120 127 127 127 127 135 137 142 150 149 148 151 154 155 161 168 184 202 217 226 230 238 241 240 237 238 243 253 259 262 263 265
193 180 309 287 50 129 202 122 124 111 110 179 192 162 159 171 168 127 132 134 134 144 152 165 162 159 161 161 164 166 172 180 194 215 224 232 246 246 246 245 242 242 240 238 237 246 252 255 256
259 347 291 298 132 142 144 94 21 121 148 203 211 147 156 162 151 129 136 141 146 161 164 167 166 170 167 172 181 180 187 192 199 216 229 230 235 233 233 236 235 235 235 239 241 245 247 252 256
136 149 252 202 64 88 68 68 82 173 161 181 123 129 151 161 148 139 149 155 163 172 166 171 166 176 176 175 174 190 190 199 206 207 220 216 227 235 221 237 235 242 226 237 241 248 249 254 257
215 216 334 62 89 91 76 50 31 349 138 125 140 149 153 166 158 160 165 169 168 155 136 160 152 176 173 168 168 190 191 197 211 213 219 217 230 243 223 227 223 228 241 253 248 257 243 247 241
195 222 104 114 114 96 85 91 97 265 294 136 138 156 158 154 172 181 96 160 101 109 129 131 113 111 109 147 178 206 202 203 185 210 206 202 352 353 332 346 210 231 243 249 236 246 231 227 236
337 248 98 100 108 111 117 131 136 258 283 144 149 164 171 121 78 64 80 71 61 78 81 78 91 95 92 72 32 36 95 117 138 86 319 99 57 29 13 357 353 3 3 336 315 298 305 255 265
25 115 122 118 147 151 136 145 116 254 254 235 172 152 102 88 79 67 62 72 75 68 67 76 85 84 64 23 60 40 18 48 69 58 47 48 49 34 24 13 10 13 357 351 357 3 351 331 9
35 9 332 130 180 114 117 115 213 200 197 142 111 99 96 91 77 79 82 79 90 74 64 41 78 103 78 48 216 39 73 70 64 57 38 37 47 33 24 17 25 7 355 357 7 9 7 353 351
106 13 321 257 154 181 130 187 255 127 123 114 106 100 87 84 93 91 84 77 73 81 79 51 13 108 89 62 84 67 66 67 65 53 46 45 45 36 28 32 24 7 358 0 3 0 359 352 322
11 238 260 277 185 149 179 150 157 141 137 141 144 134 119 109 109 101 92 83 73 63 73 74 63 71 80 85 98 84 84 72 75 64 51 49 45 36 37 22 11 357 348 356 356 358 358 344 337
243 229 262 232 190 151 156 147 161 163 157 154 153 146 138 131 133 119 102 87 78 68 61 65 55 101 92 85 91 80 80 78 74 62 51 46 39 28 29 25 13 5 350 1 2 351 342 324 319
269 279 270 350 115 131 154 146 172 174 158 161 164 152 152 147 138 114 102 97 86 70 70 55 45 52 78 67 78 85 100 99 76 69 63 54 40 37 33 21 17 6 16 10 10 338 343 351 345
267 276 291 36 117 106 95 136 197 177 178 172 167 160 147 138 132 127 122 115 107 104 80 59 47 53 73 82 72 103 112 88 109 90 74 71 53 43 42 26 14 10 9 14 2 9 352 330 3
271 297 297 236 126 93 117 313 265 188 184 169 173 159 147 148 143 138 129 128 121 113 103 84 67 54 52 71 65 62 58 62 75 73 72 69 62 58 44 28 29 17 22 9 351 357 7 357 342
322 291 316 288 65 211 117 261 276 200 193 182 168 148 147 143 140 139 136 134 135 134 110 76 58 69 56 67 78 107 119 100 120 118 109 83 71 75 57 42 40 31 18 13 357 350 340 3 357
248 254 328 255 173 55 306 86 264 245 189 191 174 144 150 151 148 150 148 142 137 124 118 107 89 79 67 68 100 105 101 114 115 65 118 110 86 83 73 51 40 32 22 8 8 359 354 0 349
80 42 358 19 62 11 253 187 277 245 194 154 153 144 155 148 149 148 145 138 142 132 125 129 124 110 91 83 85 100 107 110 78 72 102 143 124 76 62 54 37 23 24 20 4 1 358 357 0
84 57 352 351 0 228 263 237 235 185 103 149 165 148 152 149 147 146 147 147 145 142 138 142 140 132 117 107 103 107 108 99 79 102 90 81 71 45 34 45 23 355 4 25 22 14 359 349 347
181 149 160 220 223 256 337 292 287 89 63 57 64 145 140 146 152 149 149 154 149 150 148 149 160 159 140 127 123 96 85 107 97 76 58 74 85 97 16 358 336 317 313 61 31 358 343 358 354
264 175 211 166 275 42 246 20 24 72 79 73 68 92 137 148 151 150 151 156 150 154 156 150 157 157 142 137 116 94 79 105 103 84 69 105 76 6 354 341 331 323 8 351 351 327 328 20 352
107 238 22 356 158 281 284 284 180 115 130 121 125 134 146 149 151 154 156 160 149 151 149 149 150 156 157 149 152 147 143 137 119 80 54 14 7 19 8 354 356 351 357 9 351 336 342 26 349
327 288 238 149 145 172 317 279 196 162 167 162 176 172 155 150 159 159 167 160 151 153 155 150 151 161 163 164 168 166 185 163 142 88 64 52 33 19 6 355 348 343 6 4 356 343 357 19 355
203 204 177 134 275 225 176 259 146 156 172 157 177 160 166 161 164 166 158 150 157 155 155 159 159 164 170 175 160 164 164 134 100 83 70 65 47 34 19 13 16 7 359 345 335 344 359 3 350